GW6896 Weather Reports


time (UTC)temp
F
wind
direction
speed
knots
gust
knots
rain 1hr
in
rain 24hr
in
rain mn
in
humidity
%
barometer
mb
20260506004523 66 296 1.7 3.5 0.00 0.00 0.00 63 1015.1
20260506004019 67 51 2.6 2.6 0.00 0.00 0.00 62 1014.8
20260506003516 67 299 0.9 2.6 0.00 0.00 0.00 62 1015.0
20260506003012 66 3 0.0 1.7 0.00 0.00 0.00 62 1014.9
20260506002508 67 327 0.9 1.7 0.00 0.00 0.00 62 1015.0
20260506002003 67 2 1.7 3.5 0.00 0.00 0.00 61 1014.9
20260506001500 66 276 0.9 1.7 0.00 0.00 0.00 63 1015.0
20260506000958 66 20 0.9 2.6 0.00 0.00 0.00 63 1014.8
20260506000455 66 356 1.7 2.6 0.00 0.00 0.00 62 1015.0
20260505235952 67 342 0.9 1.7 0.00 0.00 0.00 62 1014.8
20260505235450 67 23 0.9 1.7 0.00 0.00 0.00 61 1015.1
20260505234947 67 47 1.7 2.6 0.00 0.00 0.00 61 1015.2
20260505234444 67 311 1.7 3.5 0.00 0.00 0.00 61 1015.2
20260505233940 67 333 4.3 5.2 0.00 0.00 0.00 60 1015.2
20260505233438 67 297 0.9 2.6 0.00 0.00 0.00 60 1015.1
20260505232936 67 304 1.7 5.2 0.00 0.00 0.00 60 1015.3
20260505232434 67 26 0.9 2.6 0.00 0.00 0.00 61 1015.4
20260505231930 67 24 0.9 5.2 0.00 0.00 0.00 61 1015.3
20260505231428 67 152 0.9 5.2 0.00 0.00 0.00 61 1015.5
20260505230926 67 329 0.9 5.2 0.00 0.00 0.00 60 1015.4
20260505230423 67 355 1.7 3.5 0.00 0.00 0.00 61 1015.6
20260505225919 67 296 1.7 3.5 0.00 0.00 0.00 60 1015.6
20260505225417 68 355 0.0 1.7 0.00 0.00 0.00 60 1015.5
20260505224912 68 265 1.7 3.5 0.00 0.00 0.00 59 1015.6
20260505224409 67 43 0.9 2.6 0.00 0.00 0.00 59 1015.7
20260505223906 68 290 0.9 3.5 0.00 0.00 0.00 58 1015.7
20260505223403 67 11 0.9 3.5 0.00 0.00 0.00 58 1015.8
20260505222859 68 299 0.9 2.6 0.00 0.00 0.00 58 1015.7
20260505222356 67 348 0.0 1.7 0.00 0.00 0.00 59 1015.8
20260505221852 67 266 0.9 3.5 0.00 0.00 0.00 59 1015.9
20260505221349 66 285 0.0 2.6 0.00 0.00 0.00 59 1015.9
20260505220846 67 300 0.9 5.2 0.00 0.00 0.00 59 1015.9
20260505220343 67 343 2.6 3.5 0.00 0.00 0.00 57 1016.0
20260505215841 65 222 0.9 1.7 0.00 0.00 0.00 61 1015.9
20260505215339 65 282 0.0 1.7 0.00 0.00 0.00 60 1016.1
20260505214837 66 0 1.7 2.6 0.00 0.00 0.00 58 1016.1
20260505214334 65 22 0.0 0.9 0.00 0.00 0.00 61 1016.1
20260505213831 64 10 0.9 0.9 0.00 0.00 0.00 61 1016.1
20260505213329 64 43 0.0 1.7 0.00 0.00 0.00 61 1016.4
20260505212824 65 28 0.9 1.7 0.00 0.00 0.00 62 1016.1
20260505212322 64 45 0.0 0.9 0.00 0.00 0.00 62 1016.3
20260505211818 63 328 0.0 1.7 0.00 0.00 0.00 64 1016.0
20260505211316 64 311 0.0 1.7 0.00 0.00 0.00 63 1016.3
20260505210812 64 330 0.0 1.7 0.00 0.00 0.00 62 1016.1
20260505210309 64 139 0.0 0.9 0.00 0.00 0.00 62 1016.3
20260505205806 63 142 0.0 0.9 0.00 0.00 0.00 65 1016.4
20260505205305 63 14 0.9 1.7 0.00 0.00 0.00 63 1016.5
20260505204800 63 297 0.9 1.7 0.00 0.00 0.00 63 1016.4
20260505204259 63 332 0.9 1.7 0.00 0.00 0.00 63 1016.6
20260505203755 63 343 0.0 0.9 0.00 0.00 0.00 63 1016.4
20260505203252 63 279 0.9 2.6 0.00 0.00 0.00 64 1016.4
20260505202749 63 330 0.9 0.9 0.00 0.00 0.00 64 1016.4
20260505202244 63 311 0.9 0.9 0.00 0.00 0.00 64 1016.5
20260505201741 63 294 0.0 0.0 0.00 0.00 0.00 63 1016.6
20260505201239 63 348 0.0 2.6 0.00 0.00 0.00 63 1016.5
20260505200737 63 353 0.0 1.7 0.00 0.00 0.00 65 1016.4
20260505200234 62 108 0.0 1.7 0.00 0.00 0.00 64 1016.6
20260505195729 62 357 0.9 0.9 0.00 0.00 0.00 64 1016.6
20260505195227 62 277 0.0 0.9 0.00 0.00 0.00 65 1016.7
20260505194724 61 159 0.0 1.7 0.00 0.00 0.00 66 1016.5
20260505194220 62 327 1.7 1.7 0.00 0.00 0.00 65 1016.6
20260505193716 62 276 0.0 1.7 0.00 0.00 0.00 65 1016.7
20260505193214 62 329 0.9 1.7 0.00 0.00 0.00 65 1016.6
20260505192712 62 257 0.0 0.9 0.00 0.00 0.00 64 1016.4
20260505192209 62 215 0.9 0.9 0.00 0.00 0.00 64 1016.7
20260505191708 62 9 0.9 0.9 0.00 0.00 0.00 65 1016.5
20260505191205 61 1 0.0 0.9 0.00 0.00 0.00 67 1016.5
20260505190701 62 50 0.0 0.9 0.00 0.00 0.00 65 1016.6
20260505190201 61 47 0.0 0.0 0.00 0.00 0.00 68 1016.6
20260505185658 60 51 0.0 0.9 0.00 0.00 0.00 70 1016.5
20260505185155 60 54 0.9 1.7 0.00 0.00 0.00 69 1016.8
20260505184651 60 47 0.0 0.9 0.00 0.00 0.00 69 1016.8
20260505184148 60 47 0.0 0.9 0.00 0.00 0.00 69 1016.4
20260505183645 60 308 0.0 0.9 0.00 0.00 0.00 68 1016.6
20260505183143 60 357 0.9 1.7 0.00 0.00 0.00 68 1016.5
20260505182638 60 32 0.0 0.9 0.00 0.00 0.00 69 1016.5
20260505182136 59 211 0.0 0.9 0.00 0.00 0.00 69 1016.4
20260505181632 59 208 0.0 1.7 0.00 0.00 0.00 69 1016.3
20260505181130 59 293 0.0 0.9 0.00 0.00 0.00 70 1016.5
20260505180625 59 198 0.0 0.9 0.00 0.00 0.00 70 1016.5
20260505180123 59 204 0.9 1.7 0.00 0.00 0.00 70 1016.4
20260505175619 59 283 0.0 1.7 0.00 0.00 0.00 70 1016.4
20260505175116 59 35 0.9 0.9 0.00 0.00 0.00 69 1016.2
20260505174612 59 322 0.0 0.9 0.00 0.00 0.00 70 1016.4
20260505174108 58 322 0.0 0.9 0.00 0.00 0.00 71 1016.5
20260505173605 59 321 0.9 0.9 0.00 0.00 0.00 70 1016.4
20260505173102 59 210 0.0 0.9 0.00 0.00 0.00 70 1016.3
20260505172600 59 176 0.0 0.9 0.00 0.00 0.00 70 1016.3
20260505172056 59 217 0.0 1.7 0.00 0.00 0.00 69 1016.3
20260505171551 59 19 0.0 0.0 0.00 0.00 0.00 69 1016.3
20260505171048 59 19 0.0 0.9 0.00 0.00 0.00 70 1016.4
20260505170545 59 25 0.0 0.0 0.00 0.00 0.00 71 1016.1
20260505170041 59 25 0.0 0.9 0.00 0.00 0.00 70 1016.2
20260505165537 58 25 0.0 0.0 0.00 0.00 0.00 72 1016.2
20260505165032 58 25 0.0 0.0 0.00 0.00 0.00 71 1016.2
20260505164529 58 25 0.0 0.0 0.00 0.00 0.00 73 1016.3
20260505164026 58 25 0.0 0.0 0.00 0.00 0.00 73 1016.3
20260505163525 57 25 0.0 0.9 0.00 0.00 0.00 74 1016.2
20260505163021 58 25 0.0 0.9 0.00 0.00 0.00 72 1016.5
20260505162515 57 333 0.0 0.0 0.00 0.00 0.00 73 1016.3
20260505162012 57 334 0.0 0.9 0.00 0.00 0.00 74 1016.4
20260505161508 57 335 0.0 0.0 0.00 0.00 0.00 73 1016.3
20260505161006 57 315 0.0 0.9 0.00 0.00 0.00 74 1016.3
20260505160504 57 108 0.0 0.9 0.00 0.00 0.00 75 1016.4
20260505152940 56 214 0.0 0.9 0.00 0.00 0.00 76 1016.2
20260505152437 56 350 0.0 0.0 0.00 0.00 0.00 76 1016.3
20260505151932 56 350 0.0 0.9 0.00 0.00 0.00 76 1016.5
20260505151427 56 336 0.0 0.9 0.00 0.00 0.00 76 1016.2
20260505150925 56 335 0.0 0.0 0.00 0.00 0.00 77 1016.1
20260505150422 56 324 0.9 1.7 0.00 0.00 0.00 77 1016.1
20260505140351 54 341 0.0 0.9 0.00 0.00 0.00 80 1016.1
20260505124805 54 113 0.0 0.0 0.00 0.00 0.00 80 1015.4
20260505124302 54 113 0.0 0.0 0.00 0.00 0.00 80 1015.5
20260505123758 54 53 0.0 0.0 0.00 0.00 0.00 80 1015.4
20260505123255 54 339 0.0 0.0 0.00 0.00 0.00 80 1015.5
20260505122751 54 341 0.0 0.0 0.00 0.00 0.00 81 1015.2
20260505122248 54 341 0.0 0.9 0.00 0.00 0.00 80 1015.4
20260505121745 54 341 0.0 0.9 0.00 0.00 0.00 80 1015.3
20260505121242 54 341 0.0 0.0 0.00 0.00 0.00 81 1015.1
20260505120738 54 344 0.0 1.7 0.00 0.00 0.00 81 1015.1
20260505120234 54 352 0.0 0.9 0.00 0.00 0.00 81 1015.1
20260505115733 54 352 0.0 0.9 0.00 0.00 0.00 81 1015.2
20260505115231 54 353 0.0 0.9 0.00 0.00 0.00 81 1015.1
20260505114728 54 353 0.0 0.9 0.00 0.00 0.00 82 1015.2
20260505114223 54 353 0.0 0.0 0.00 0.00 0.00 82 1015.2
20260505113720 54 353 0.0 0.9 0.00 0.00 0.00 82 1015.1
20260505113217 54 353 0.0 0.0 0.00 0.00 0.00 82 1015.3
20260505112713 54 352 0.0 0.0 0.00 0.00 0.00 82 1015.3
20260505112212 54 352 0.0 0.0 0.00 0.00 0.00 82 1015.3
20260505111711 54 350 0.9 0.9 0.00 0.00 0.00 82 1015.2
20260505111207 54 323 0.0 0.9 0.00 0.00 0.00 82 1015.3
20260505110703 54 352 0.0 0.9 0.00 0.00 0.00 82 1015.2
20260505110201 54 26 0.0 0.9 0.00 0.00 0.00 83 1015.3
20260505102136 54 109 0.0 0.9 0.00 0.00 0.00 84 1015.0
20260505101635 54 248 0.9 0.9 0.00 0.00 0.00 84 1014.8
20260505101131 54 322 0.0 1.7 0.00 0.00 0.00 84 1014.9
20260505100627 54 337 0.9 2.6 0.00 0.00 0.00 84 1015.0
20260505100124 54 111 0.0 0.0 0.00 0.00 0.00 84 1015.0
20260505095620 54 131 0.0 0.9 0.00 0.00 0.00 84 1014.7
20260505095117 54 135 0.0 0.0 0.00 0.00 0.00 84 1014.7
20260505094613 54 137 0.0 1.7 0.00 0.00 0.00 83 1015.0
20260505094110 54 170 0.0 0.9 0.00 0.00 0.00 83 1014.8
20260505093606 54 173 0.9 0.9 0.00 0.00 0.00 83 1014.7
20260505093104 54 173 0.0 0.9 0.00 0.00 0.00 83 1014.9
20260505092601 54 195 0.0 0.9 0.00 0.00 0.00 83 1014.8
20260505092100 54 200 0.0 0.9 0.00 0.00 0.00 84 1015.0
20260505091556 54 321 0.0 0.9 0.00 0.00 0.00 84 1014.8
20260505091054 54 288 0.0 0.0 0.00 0.00 0.00 85 1014.7
20260505090552 54 288 0.0 0.0 0.00 0.00 0.00 85 1014.8
20260505090050 54 287 0.0 1.7 0.00 0.00 0.00 85 1014.8
20260505085547 54 297 0.0 0.0 0.00 0.00 0.00 85 1014.9
20260505085045 54 296 0.0 0.9 0.00 0.00 0.00 84 1014.8
20260505084543 54 296 0.9 0.9 0.00 0.00 0.00 83 1014.8
20260505084041 54 296 0.0 0.9 0.00 0.00 0.00 83 1014.9
20260505083537 54 282 0.0 0.9 0.00 0.00 0.00 83 1014.9
20260505083034 54 261 0.0 0.0 0.00 0.00 0.00 83 1015.0
20260505082530 54 261 0.0 0.9 0.00 0.00 0.00 83 1015.1
20260505082027 54 200 0.0 0.9 0.00 0.00 0.00 83 1015.0
20260505081523 54 259 0.0 1.7 0.00 0.00 0.00 83 1015.0
20260505081021 54 201 0.0 0.9 0.00 0.00 0.00 83 1015.0
20260505080517 55 206 0.0 1.7 0.00 0.00 0.00 83 1015.0
20260505080014 55 181 0.0 0.9 0.00 0.00 0.00 83 1015.1
20260505075509 55 181 0.0 0.9 0.00 0.00 0.00 82 1015.1
20260505075006 55 196 0.9 1.7 0.00 0.00 0.00 82 1015.0
20260505074504 55 350 0.0 0.9 0.00 0.00 0.00 81 1015.0
20260505074001 55 348 0.0 0.9 0.00 0.00 0.00 81 1014.9
20260505073458 55 336 0.0 0.0 0.00 0.00 0.00 80 1015.1
20260505072955 55 336 0.9 0.9 0.00 0.00 0.00 80 1015.0
20260505072452 55 344 0.0 0.9 0.00 0.00 0.00 80 1015.1
20260505071948 55 341 0.0 0.9 0.00 0.00 0.00 79 1014.9
20260505071444 55 326 0.0 1.7 0.00 0.00 0.00 79 1015.0
20260505070942 55 329 0.0 0.9 0.00 0.00 0.00 79 1014.8
20260505070438 55 303 0.9 2.6 0.00 0.00 0.00 78 1014.9
20260505065934 56 302 0.0 1.7 0.00 0.00 0.00 78 1014.8
20260505065431 56 202 0.0 1.7 0.00 0.00 0.00 78 1014.9
20260505064928 56 318 0.9 1.7 0.00 0.00 0.00 78 1014.8
20260505064425 56 334 0.9 1.7 0.00 0.00 0.00 78 1014.6
20260505063923 56 329 0.9 3.5 0.00 0.00 0.00 78 1014.9
20260505063419 56 329 0.9 1.7 0.00 0.00 0.00 78 1014.8
20260505062915 56 325 0.0 2.6 0.00 0.00 0.00 77 1014.9
20260505062413 56 220 0.0 0.9 0.00 0.00 0.00 78 1014.7
20260505061909 56 308 0.0 0.9 0.00 0.00 0.00 77 1014.7
20260505061408 56 21 0.0 2.6 0.00 0.00 0.00 77 1014.8
20260505060905 56 317 0.9 0.9 0.00 0.00 0.00 77 1014.7
20260505060401 56 319 0.0 0.9 0.00 0.00 0.00 77 1014.7
20260505055858 56 292 0.0 0.0 0.00 0.00 0.00 77 1014.6
20260505055354 56 291 0.0 1.7 0.00 0.00 0.00 77 1014.9
20260505054851 56 0 0.0 0.9 0.00 0.00 0.00 77 1014.8
20260505054348 56 331 0.9 0.9 0.00 0.00 0.00 77 1014.6
20260505053846 56 339 0.0 0.9 0.00 0.00 0.00 77 1014.5
20260505053343 56 330 0.0 0.9 0.00 0.00 0.00 77 1014.6
20260505052840 57 311 0.9 0.9 0.00 0.00 0.00 77 1014.5
20260505052337 57 308 0.0 0.9 0.00 0.00 0.00 77 1014.4
20260505051834 57 314 0.9 0.9 0.00 0.00 0.00 77 1014.6
20260505051331 57 335 0.0 0.0 0.00 0.00 0.00 77 1014.5
20260505050829 57 306 0.0 0.9 0.00 0.00 0.00 77 1014.6
20260505050328 57 292 0.0 0.0 0.00 0.00 0.00 77 1014.3
20260505041757 56 342 0.9 2.6 0.00 0.00 0.00 78 1014.0
20260505041254 56 322 0.9 0.9 0.00 0.00 0.00 78 1013.8
20260505040752 56 344 0.0 0.9 0.00 0.00 0.00 78 1013.7
20260505040249 56 289 0.9 1.7 0.00 0.00 0.00 78 1013.7
20260505035746 57 291 0.0 0.9 0.00 0.00 0.00 77 1013.8
20260505035242 57 317 0.0 0.0 0.00 0.00 0.00 77 1013.7
20260505034739 57 67 0.9 1.7 0.00 0.00 0.00 77 1013.8
20260505034236 57 183 0.0 0.9 0.00 0.00 0.00 76 1013.4
20260505033732 57 324 0.0 0.0 0.00 0.00 0.00 76 1013.4
20260505033230 58 314 0.0 0.0 0.00 0.00 0.00 76 1013.4
20260505032728 58 317 0.0 0.0 0.00 0.00 0.00 75 1013.4
20260505032224 58 117 0.0 1.7 0.00 0.00 0.00 75 1013.3
20260505031721 58 328 0.9 1.7 0.00 0.00 0.00 74 1013.2
20260505031217 59 198 0.0 0.9 0.00 0.00 0.00 74 1013.1
20260505030715 59 323 0.0 1.7 0.00 0.00 0.00 73 1013.0
20260505030211 59 317 0.0 0.9 0.00 0.00 0.00 73 1012.9
20260505025707 59 316 0.0 2.6 0.00 0.00 0.00 72 1012.8
20260505025205 60 342 0.0 3.5 0.00 0.00 0.00 71 1012.7
20260505024703 60 253 0.0 2.6 0.00 0.00 0.00 71 1012.7
20260505024159 61 341 0.9 3.5 0.00 0.00 0.00 69 1012.6
20260505023657 62 288 2.6 5.2 0.00 0.00 0.00 68 1012.6
20260505023154 62 313 0.9 2.6 0.00 0.00 0.00 68 1012.5
20260505022652 62 205 1.7 2.6 0.00 0.00 0.00 66 1012.4
20260505022149 62 137 0.0 2.6 0.00 0.00 0.00 67 1012.5
20260505021645 62 228 0.9 1.7 0.00 0.00 0.00 67 1012.4
20260505021142 62 195 0.9 1.7 0.00 0.00 0.00 67 1012.4
20260505020637 63 346 0.0 1.7 0.00 0.00 0.00 67 1012.2
20260505020133 63 307 0.9 1.7 0.00 0.00 0.00 66 1012.2
20260505015631 63 343 2.6 2.6 0.00 0.00 0.00 66 1012.1
20260505015127 63 272 0.0 1.7 0.00 0.00 0.00 65 1012.3
20260505014624 64 189 0.0 2.6 0.00 0.00 0.00 65 1012.1
20260505014121 64 344 1.7 3.5 0.00 0.00 0.00 65 1012.2
20260505013619 64 320 2.6 6.1 0.00 0.00 0.00 65 1012.4
20260505013116 64 252 0.9 3.5 0.00 0.00 0.00 65 1012.2
20260505012614 64 5 0.9 5.2 0.00 0.00 0.00 65 1012.3
20260505012110 64 354 0.0 3.5 0.00 0.00 0.00 64 1012.3
20260505011606 64 357 0.9 2.6 0.00 0.00 0.00 64 1012.4
20260505011104 65 294 2.6 5.2 0.00 0.00 0.00 64 1012.5
20260505010559 64 147 0.0 0.9 0.00 0.00 0.00 65 1012.3
20260505010055 65 273 0.9 3.5 0.00 0.00 0.00 64 1012.3
20260505005552 65 313 1.7 3.5 0.00 0.00 0.00 63 1012.2
20260505005049 66 309 1.7 3.5 0.00 0.00 0.00 63 1012.3